Location: Fond Mahaut
(18.0707°N, 63.0465°W)
Time: 17:56:50
(UTC+00:00)

ERBS - Pass Details

Date: 08 December 2019
Orbit: 410 x 430 km, 57.0° (Epoch: 20 January)

Event Time Altitude Azimuth Distance (km) Brightness Sun altitude
Rises 23:09:10 0° 313° (NW) 2,372 6.5 -21.4°
Reaches altitude 10° 23:11:26 10° 300° (WNW) 1,509 5.6 -21.9°
Maximum altitude 23:14:21 27° 240° (WSW) 847 4.5 -22.6°
Drops below altitude 10° 23:17:17 10° 180° (S) 1,514 5.3 -23.3°
Sets 23:19:34 0° 168° (SSE) 2,380 6.1 -23.8°
